[[{"header":{"parameterUnit":"m.s-1","parameterCategory":1,"la1":30.2991,"la2":30.254,"lo1":-89.0895,"lo2":-89.0444,"dy":0.0017,"dx":0.0017,"nx":28,"ny":28,"refTime":"2024-12-11T09:00:00:Z","depth":0,"parameterNumber":2,"parameterNumberName":"U-component_of_WINDS"},"data":[0,0,0,0,0,0,0,0,0,0,0,0,0,0,0,0,0,0,0,0,0,0,0,0,0,0,0,0,0,0,0,0,0,0,0,0,0,0,0,0,0,0,0,0,0,0,0,0,0,0,0,0,0,0,0,0,0,0,4.6757,4.6757,0,4.6766,4.6767,4.6767,4.6697,4.6695,4.6694,4.6692,4.6699,4.6701,4.6703,0,0,0,0,0,0,0,0,0,0,0,0,0,4.668,4.6682,4.6757,4.6757,4.6758,4.6766,4.6767,4.6767,4.6698,4.6695,4.6693,4.6691,4.6699,4.6701,4.6703,0,0,0,0,0,0,0,0,0,0,0,0,0,4.6704,4.6683,4.6757,4.6724,4.6721,4.6766,4.6767,4.6767,4.6698,4.6695,4.6692,4.669,4.6698,4.6701,4.6704,4.678,0,0,4.6713,4.6714,0,0,0,0,0,0,0,0,4.6703,4.6707,4.6729,4.6727,4.6724,4.6728,4.6742,4.6771,4.6699,4.6707,4.6692,4.6688,4.6711,4.6713,4.6721,4.6781,4.6781,4.6713,4.6715,4.6716,4.6717,0,0,0,0,0,0,0,4.6701,4.6706,4.6761,4.6729,4.6726,4.6709,4.6709,4.6747,4.6725,4.6706,4.6701,4.6703,4.6709,4.6718,4.672,4.6781,4.6713,4.6716,4.6718,4.6719,4.6906,4.6909,0,0,0,0,0,0,4.6704,4.6705,4.6761,4.6761,4.6706,4.6713,4.6713,4.6729,4.6725,4.6721,4.6706,4.67,4.6714,4.6717,4.672,4.6811,4.6716,4.6719,4.6721,4.6903,4.6907,4.6911,0,0,0,0,0,0,4.6703,4.671,4.676,4.6732,4.6737,4.6717,4.6736,4.6731,4.674,4.6724,4.672,4.6719,4.6712,4.6716,4.6767,4.681,4.672,4.6723,4.6899,4.6904,4.6909,4.6992,0,0,0,0,0,0,4.6701,4.671,4.6738,4.6733,4.6739,4.6806,4.6739,4.6733,4.6746,4.6738,4.6736,4.6732,4.671,4.6762,4.677,4.6813,4.6726,4.6895,4.6902,4.6907,4.6985,4.6999,4.7011,0,0,0,0,0,4.6698,4.676,4.674,4.6747,4.6774,4.6809,4.6812,4.6786,4.6749,4.6778,4.6769,4.6732,4.6805,4.6768,4.6776,4.682,4.6893,4.69,4.6907,4.698,4.6996,4.7011,0,0,0,0,0,0,4.677,4.6759,4.6736,4.6799,4.6806,4.6797,4.6833,4.6804,4.6821,4.6813,4.6779,4.6779,4.6836,4.6833,4.6793,4.6895,4.6842,4.6851,4.6895,4.6911,4.6923,4.6923,4.6728,0,0,0,0,0,4.6793,4.6823,4.6811,4.6868,4.6872,4.6853,4.6866,4.6846,4.6851,4.6853,4.6847,4.6853,4.6877,4.6894,4.6915,4.6985,4.6984,4.702,4.7032,4.7043,4.7051,4.7089,4.7105,4.6934,4.6934,4.6934,0,0,4.6841,4.6839,4.6859,4.6882,4.6885,4.6916,4.6855,4.689,4.6913,4.6858,4.6906,4.6902,4.6907,4.6968,4.6994,4.6967,4.7098,4.7052,4.7061,4.7063,4.7098,4.7115,4.7129,4.6939,4.6938,4.6937,0,0,4.6945,4.6946,4.6994,4.6998,4.7004,4.6991,4.7003,4.6999,4.6995,4.7042,4.7003,4.703,4.7071,4.7077,4.7085,4.7195,4.7163,4.7202,4.7269,4.7307,4.732,4.7332,4.7372,4.7387,4.7211,4.7211,4.7211,0,4.7003,4.7049,4.7022,4.7061,4.7072,4.7026,4.7074,4.708,4.7092,4.7101,4.7071,4.7125,4.7124,4.7187,4.7214,4.7222,4.7235,4.7202,4.7321,4.7332,4.7343,4.7381,4.7396,4.7216,4.7215,4.7215,4.7214,0,4.7122,4.7155,4.7193,4.7208,4.7223,4.7267,4.7246,4.7266,4.7245,4.7235,4.7285,4.7283,4.7304,4.7318,4.7297,4.7378,4.7361,4.7327,4.7272,4.7365,4.74,4.7414,4.7223,4.7221,4.7219,4.7218,0,0,4.7269,4.727,4.7284,4.7291,4.7296,4.732,4.7362,4.7384,4.7402,4.7413,4.7448,4.7486,4.7454,4.7464,4.7443,4.7477,4.7565,4.7438,4.7438,4.7462,4.7656,4.7682,4.7699,4.7544,4.7547,4.7549,4.7656,0,4.7371,4.7443,4.7421,4.7494,4.7525,4.7482,4.7519,4.7526,4.7519,4.7544,4.7535,4.7563,4.7519,4.7525,4.7556,4.7548,4.7603,4.754,4.7576,4.7578,4.7577,4.7717,4.7745,4.7846,4.7669,4.7671,4.7673,0,4.7499,4.7517,4.7594,4.7595,4.7607,4.764,4.766,4.7684,4.7691,4.7684,4.7696,4.7669,4.7711,4.7658,4.7715,4.7673,4.7686,4.7685,4.7688,4.769,4.7631,4.7724,4.7877,4.7893,4.7694,4.7692,4.7691,0,4.76,4.7643,4.7695,4.7702,4.7704,4.7729,4.7731,4.7736,4.7751,4.7768,4.7778,4.7799,4.7811,4.7828,4.7808,4.7771,4.7869,4.7813,4.7864,4.7865,4.7886,4.7885,4.8044,4.7895,4.7895,4.7895,4.7894,0,4.7716,4.7765,4.7741,4.7773,4.7827,4.7801,4.7855,4.7852,4.7857,4.7888,4.7852,4.7882,4.7853,4.7881,4.7865,4.7916,4.7921,4.7917,4.7912,4.792,4.7921,4.7928,4.7921,4.7899,4.7898,4.7897,4.7896,0,4.7838,4.7823,4.7877,4.7876,4.7877,4.7917,4.7916,4.7946,4.7937,4.7976,4.7984,4.797,4.8,4.7982,4.8013,4.8003,4.8069,4.8055,4.8067,4.8063,4.8115,4.8111,4.8285,4.8307,4.8144,4.8145,4.8147,0,4.7913,4.795,4.7954,4.7973,4.7978,4.8008,4.8024,4.8,4.8019,4.8031,4.806,4.8088,4.8109,4.816,4.8152,4.8175,4.8161,4.8221,4.8165,4.8172,4.8163,4.8161,4.8165,4.8232,4.8234,4.8236,4.8237,0,4.8048,4.804,4.8065,4.8089,4.8109,4.8126,4.814,4.8157,4.8134,4.8157,4.8188,4.8205,4.8237,4.8266,4.8286,4.8288,4.8259,4.8255,4.8268,4.8277,4.8283,4.8281,4.8099,4.8251,4.8249,4.8248,4.8248,4.8247,4.8149,4.8181,4.819,4.8219,4.8228,4.8242,4.8271,4.8266,4.8292,4.8318,4.8302,4.834,4.8348,4.8373,4.8379,4.8408,4.8384,4.8403,4.8408,4.8413,4.842,4.8279,4.8412,4.8411,4.8411,4.841,4.841,0,4.8284,4.8288,4.8315,4.8337,4.8361,4.8333,4.8348,4.8369,4.8403,4.8413,4.8436,4.8473,4.8501,4.8496,4.8521,4.8546,4.8533,4.8553,4.8551,4.8552,4.844,4.8426,4.8563,4.8563,4.8563,4.8563,4.8563,4.8563,4.8356,4.8409,4.8402,4.846,4.8463,4.85,4.8511,4.8525,4.8533,4.8577,4.86,4.8598,4.8602,4.8628,4.8653,4.8651,4.8662,4.8687,4.868,4.8575,4.856,4.8546,4.8533,4.869,4.869,4.8791,4.8791,4.8792]},{"header":{"parameterUnit":"m.s-1","parameterCategory":1,"la1":30.2991,"la2":30.254,"lo1":-89.0895,"lo2":-89.0444,"dy":0.0017,"dx":0.0017,"nx":28,"ny":28,"refTime":"2024-12-11T09:00:00:Z","depth":0,"parameterNumber":3,"parameterNumberName":"V-component_of_WINDS"},"data":[0,0,0,0,0,0,0,0,0,0,0,0,0,0,0,0,0,0,0,0,0,0,0,0,0,0,0,0,0,0,0,0,0,0,0,0,0,0,0,0,0,0,0,0,0,0,0,0,0,0,0,0,0,0,0,0,0,0,-7.2606,-7.2608,0,-7.2771,-7.2773,-7.2775,-7.2744,-7.2741,-7.2738,-7.2736,-7.2899,-7.2906,-7.2913,0,0,0,0,0,0,0,0,0,0,0,0,0,-7.2262,-7.2268,-7.2606,-7.2608,-7.261,-7.2771,-7.2773,-7.2775,-7.2745,-7.2741,-7.2738,-7.2734,-7.2897,-7.2905,-7.2913,0,0,0,0,0,0,0,0,0,0,0,0,0,-7.2417,-7.227,-7.2606,-7.2614,-7.2617,-7.277,-7.2773,-7.2776,-7.2746,-7.2741,-7.2737,-7.2733,-7.2894,-7.2904,-7.2915,-7.3067,0,0,-7.2947,-7.2951,0,0,0,0,0,0,0,0,-7.2408,-7.243,-7.2611,-7.2614,-7.2617,-7.2733,-7.2711,-7.2873,-7.2747,-7.2697,-7.2736,-7.2731,-7.2847,-7.2861,-7.2901,-7.3075,-7.3082,-7.2948,-7.2954,-7.2959,-7.2962,0,0,0,0,0,0,0,-7.2398,-7.2423,-7.2671,-7.2614,-7.2618,-7.2609,-7.2626,-7.2742,-7.2794,-7.2701,-7.2699,-7.2719,-7.2847,-7.2891,-7.2905,-7.3084,-7.2948,-7.2957,-7.2963,-7.2968,-7.3394,-7.3399,0,0,0,0,0,0,-7.2385,-7.2414,-7.2666,-7.2676,-7.25,-7.2619,-7.2638,-7.27,-7.2793,-7.2803,-7.2723,-7.2717,-7.2875,-7.2893,-7.291,-7.3097,-7.2959,-7.2969,-7.2975,-7.3389,-7.3395,-7.34,0,0,0,0,0,0,-7.2377,-7.2408,-7.2659,-7.2545,-7.2576,-7.263,-7.2699,-7.2705,-7.2749,-7.2809,-7.2818,-7.2758,-7.2872,-7.2896,-7.303,-7.3102,-7.2973,-7.2983,-7.3383,-7.3391,-7.3398,-7.3471,0,0,0,0,0,0,-7.2368,-7.2405,-7.2464,-7.2546,-7.2582,-7.2777,-7.2704,-7.2712,-7.2768,-7.2762,-7.2845,-7.2854,-7.2871,-7.3014,-7.304,-7.3115,-7.2991,-7.3377,-7.3387,-7.3395,-7.3462,-7.348,-7.3495,0,0,0,0,0,-7.2356,-7.2477,-7.2468,-7.2498,-7.2658,-7.2781,-7.2801,-7.282,-7.2774,-7.2834,-7.2873,-7.2852,-7.309,-7.3028,-7.3057,-7.3136,-7.3372,-7.3384,-7.3395,-7.3455,-7.3476,-7.3495,0,0,0,0,0,0,-7.24,-7.2487,-7.2478,-7.263,-7.2699,-7.2776,-7.2852,-7.2842,-7.2923,-7.2914,-7.2932,-7.295,-7.3087,-7.3124,-7.3054,-7.329,-7.3225,-7.3242,-7.326,-7.3281,-7.3297,-7.3286,-7.3,0,0,0,0,0,-7.2427,-7.2522,-7.2592,-7.2719,-7.2755,-7.2798,-7.2852,-7.286,-7.2931,-7.2959,-7.3008,-7.3076,-7.3167,-7.3226,-7.3312,-7.3467,-7.3485,-7.3536,-7.3552,-7.3566,-7.3581,-7.3667,-7.369,-7.3437,-7.3437,-7.3437,0,0,-7.2485,-7.2544,-7.2602,-7.273,-7.2784,-7.288,-7.2822,-7.2925,-7.2997,-7.2974,-7.3105,-7.3143,-7.3221,-7.3367,-7.3433,-7.3402,-7.3655,-7.358,-7.359,-7.3598,-7.3681,-7.3705,-7.3726,-7.3445,-7.3443,-7.3442,0,0,-7.2639,-7.2694,-7.2806,-7.2863,-7.2947,-7.2975,-7.3002,-7.3082,-7.3107,-7.3239,-7.3224,-7.3309,-7.3464,-7.3521,-7.3569,-7.3748,-7.3732,-7.3775,-7.3861,-7.3945,-7.3965,-7.3983,-7.4048,-7.407,-7.379,-7.379,-7.3791,0,-7.2699,-7.2846,-7.2865,-7.2972,-7.3028,-7.3015,-7.3129,-7.3182,-7.3289,-7.3328,-7.3293,-7.3489,-7.354,-7.3699,-7.3744,-7.3783,-7.3815,-7.3766,-7.3961,-7.3979,-7.3996,-7.4058,-7.4082,-7.3795,-7.3795,-7.3794,-7.3794,0,-7.2916,-7.3018,-7.3099,-7.3206,-7.3271,-7.3381,-7.3416,-7.348,-7.3484,-7.3515,-7.365,-7.3711,-7.3811,-7.3849,-7.3852,-7.401,-7.3988,-7.3957,-7.3892,-7.4025,-7.4083,-7.4107,-7.3802,-7.38,-7.3799,-7.3798,0,0,-7.3102,-7.322,-7.3249,-7.3299,-7.3391,-7.347,-7.3579,-7.3679,-7.3734,-7.3808,-7.39,-7.4033,-7.4006,-7.4061,-7.4071,-7.4144,-7.4283,-7.4104,-7.4106,-7.4136,-7.4462,-7.4486,-7.4513,-7.4273,-7.4278,-7.4281,-7.4456,0,-7.3266,-7.3461,-7.3483,-7.3656,-7.3751,-7.3741,-7.3836,-7.3903,-7.3936,-7.402,-7.4055,-7.415,-7.4105,-7.4139,-7.4211,-7.4251,-7.4349,-7.4239,-7.4358,-7.4362,-7.434,-7.4544,-7.4569,-7.473,-7.4479,-7.4483,-7.4486,0,-7.3483,-7.3567,-7.3751,-7.3833,-7.3873,-7.3959,-7.4053,-7.4134,-7.4209,-7.4228,-7.4292,-7.4292,-7.4404,-7.4335,-7.449,-7.4414,-7.4464,-7.4492,-7.4498,-7.451,-7.4432,-7.4562,-7.4782,-7.4807,-7.4521,-7.4519,-7.4516,0,-7.3601,-7.376,-7.3891,-7.3933,-7.4032,-7.4092,-7.4136,-7.4207,-7.4267,-7.4348,-7.4387,-7.448,-7.4531,-7.4602,-7.4627,-7.4574,-7.4781,-7.4714,-7.4799,-7.4799,-7.4843,-7.484,-7.5076,-7.4875,-7.4875,-7.4874,-7.4874,0,-7.3782,-7.3896,-7.3946,-7.4027,-7.4154,-7.4177,-7.4301,-7.4342,-7.4406,-7.4494,-7.4489,-7.4571,-7.4599,-7.4686,-7.4706,-7.4832,-7.4854,-7.4872,-7.4876,-7.4873,-7.4871,-7.4906,-7.4896,-7.4881,-7.4879,-7.4878,-7.4877,0,-7.3936,-7.3974,-7.4117,-7.42,-7.4223,-7.4313,-7.4383,-7.4461,-7.4493,-7.4604,-7.4632,-7.4682,-7.4784,-7.4817,-7.4938,-7.4952,-7.5099,-7.5093,-7.5075,-7.5075,-7.516,-7.5152,-7.5427,-7.5464,-7.5238,-7.524,-7.5242,0,-7.4049,-7.4137,-7.423,-7.429,-7.4336,-7.4432,-7.4493,-7.452,-7.4584,-7.4678,-7.4744,-7.4846,-7.4929,-7.5092,-7.5139,-7.5232,-7.5229,-7.5319,-7.5242,-7.5237,-7.5231,-7.5226,-7.5235,-7.5333,-7.5335,-7.5337,-7.5339,0,-7.4247,-7.4263,-7.4352,-7.445,-7.4524,-7.4602,-7.4676,-7.4725,-7.4762,-7.4834,-7.494,-7.5004,-7.5131,-7.5232,-7.5328,-7.5371,-7.5361,-7.5362,-7.5387,-7.5385,-7.5372,-7.5381,-7.5115,-7.5356,-7.5354,-7.5353,-7.5352,-7.5351,-7.4385,-7.4463,-7.4542,-7.4642,-7.4702,-7.4772,-7.485,-7.4894,-7.4983,-7.509,-7.5099,-7.5214,-7.5288,-7.5416,-7.5464,-7.5553,-7.5527,-7.5563,-7.5572,-7.5581,-7.5588,-7.5358,-7.5571,-7.557,-7.557,-7.5569,-7.5569,0,-7.4583,-7.4634,-7.4727,-7.4833,-7.4912,-7.4899,-7.4981,-7.5048,-7.5149,-7.522,-7.5303,-7.5425,-7.5524,-7.5579,-7.5677,-7.5738,-7.5736,-7.5763,-7.5758,-7.5769,-7.5605,-7.5575,-7.5763,-7.5763,-7.5762,-7.5762,-7.5762,-7.5762,-7.4696,-7.4828,-7.4853,-7.5015,-7.5064,-7.5178,-7.5226,-7.5291,-7.5348,-7.5486,-7.5569,-7.5605,-7.567,-7.5773,-7.5863,-7.5876,-7.5913,-7.5943,-7.5953,-7.58,-7.578,-7.5761,-7.5732,-7.595,-7.595,-7.6109,-7.6111,-7.6112]}]]